Weather History for Hof Plauen, Germany

Change the Weather History Date:

Monday, October 1, 2012

  Actual Average Record
Temperature  
Mean Temperature 49 °F -  
Max Temperature 60 °F 56 °F 73 °F (2011)
Min Temperature 38 °F 44 °F 33 °F (2002)
Degree Days  
Heating Degree Days 16    
Moisture  
Dew Point 42 °F    
Average Humidity 76    
Maximum Humidity 98    
Minimum Humidity 47    
Precipitation  
Precipitation 0.00 in - - ()
Sea Level Pressure  
Sea Level Pressure 30.07 in    
Wind  
Wind Speed 3 mph ()    
Max Wind Speed 9 mph    
Max Gust Speed -    
Visibility 8.5 miles    
Events Rain    
Averages and records for this station are not official NWS values.
T = Trace of Precipitation, MM = Missing Value Source: Averaged Metar Reports

Daily Weather History Graph

Daily Weather History Graph

Search for Another Location

Airport:

Trip Planner

Search our weather history database for the weather conditions in past years. The results will help you decide how hot, cold, wet, or windy it might be!

Date:

Astronomy

Oct. 01, 2012 Rise Set
Actual Time 7:13 AM CEST 6:50 PM CEST
Civil Twilight 6:40 AM CEST 7:22 PM CEST
Nautical Twilight 6:02 AM CEST 8:00 PM CEST
Astronomical Twilight 5:24 AM CEST 8:38 PM CEST
Moon 7:02 PM CEST (10/1) 8:39 AM CEST (10/1)
Length of Visible Light 12h 41m
Length of Day
11h 37m
Full, 98% of the Moon is Illuminated
Oct 1
Full
Oct 8
Last Quarter
Oct 15
New
Oct 22
First Quarter
Oct 29
Full

Hourly Weather History & Observations

Time (CEST) Temp. Windchill Dew Point Humidity Pressure Visibility Wind Dir Wind Speed Gust Speed Precip Events Conditions
12:00 AM 44 °F - 40 °F 83% 30.18 in 9 mi East 2.2 mph - -   Overcast
12:20 AM 39.2 °F - 37.4 °F 93% 30.15 in 6.2 mi Calm Calm - N/A   Partly Cloudy
12:50 AM 41.0 °F - 37.4 °F 87% 30.12 in 6.2 mi Calm Calm - N/A   Mostly Cloudy
1:00 AM 42 °F - 41 °F 96% 30.17 in 6 mi SW 2.2 mph - -   Overcast
1:20 AM 41.0 °F - 39.2 °F 93% 30.12 in 6.2 mi Variable 1.2 mph - N/A   Overcast
1:50 AM 39.2 °F - 37.4 °F 93% 30.12 in 6.2 mi Calm Calm - N/A   Scattered Clouds
2:00 AM 42 °F - 41 °F 94% 30.15 in 6 mi East 4.5 mph - -   Overcast
2:20 AM 39.2 °F - 37.4 °F 93% 30.09 in 6.2 mi Calm Calm - N/A   Unknown
2:50 AM 39.2 °F - 37.4 °F 93% 30.09 in 6.2 mi Calm Calm - N/A   Mostly Cloudy
3:00 AM 41 °F - 40 °F 95% 30.15 in 6 mi West 2.2 mph - -   Overcast
3:20 AM 41.0 °F - 37.4 °F 87% 30.09 in 6.2 mi Calm Calm - N/A   Mostly Cloudy
3:50 AM 39.2 °F - 37.4 °F 93% 30.09 in 6.2 mi South 1.2 mph - N/A   Mostly Cloudy
4:00 AM 41 °F - 40 °F 93% 30.15 in 6 mi SE 4.5 mph - -   Overcast
4:20 AM 41.0 °F 39.0 °F 39.2 °F 93% 30.09 in 6.2 mi WSW 3.5 mph - N/A   Mostly Cloudy
4:50 AM 39.2 °F - 35.6 °F 87% 30.09 in 6.2 mi Calm Calm - N/A   Partly Cloudy
5:20 AM 37.4 °F - 35.6 °F 93% 30.09 in 4.3 mi Calm Calm - N/A   Unknown
5:50 AM 37.4 °F - 35.6 °F 93% 30.09 in 5.0 mi Calm Calm - N/A   Unknown
6:00 AM 39 °F - 38 °F 96% 30.13 in 16 mi SE 2.2 mph - -   Partly Cloudy
6:20 AM 37.4 °F - 35.6 °F 93% 30.06 in 3.7 mi Calm Calm - N/A   Unknown
6:50 AM 37.4 °F - 35.6 °F 93% 30.06 in - Calm Calm - N/A   Clear
7:00 AM 39 °F - 38 °F 95% 30.12 in 16 mi South 2.2 mph - -   Scattered Clouds
7:20 AM 37.4 °F - 35.6 °F 93% 30.06 in - SW 1.2 mph - N/A   Clear
8:00 AM 39 °F - 39 °F 98% 30.12 in 14 mi ENE 2.2 mph - -   Scattered Clouds
8:20 AM 44.6 °F - 42.8 °F 93% 30.06 in - SW 2.3 mph - N/A   Clear
8:50 AM 48.2 °F - 42.8 °F 82% 30.06 in - SSW 2.3 mph - N/A   Clear
9:00 AM 46 °F - 42 °F 81% 30.10 in 14 mi SE 2.2 mph - -   Scattered Clouds
9:20 AM 50.0 °F - 42.8 °F 76% 30.06 in - SSW 1.2 mph - N/A   Clear
9:50 AM 53.6 °F - 42.8 °F 67% 30.06 in - Calm Calm - N/A   Clear
10:00 AM 51 °F - 44 °F 70% 30.07 in 16 mi SSE 2.2 mph - -   Scattered Clouds
10:20 AM 53.6 °F - 42.8 °F 67% 30.06 in - South 3.5 mph - N/A   Clear
10:50 AM 53.6 °F - 44.6 °F 72% 30.06 in - Variable 2.3 mph - N/A   Clear
11:20 AM 55.4 °F - 44.6 °F 67% 30.06 in - Variable 1.2 mph - N/A   Clear
11:50 AM 57.2 °F - 41.0 °F 55% 30.06 in - Variable 4.6 mph - N/A   Clear
12:00 PM 57 °F - 46 °F 56% 30.04 in 17 mi South 2.2 mph - -   Scattered Clouds
12:20 PM 59.0 °F - 41.0 °F 51% 30.06 in - West 6.9 mph - N/A   Clear
12:50 PM 59.0 °F - 42.8 °F 55% 30.06 in - West 5.8 mph - N/A   Clear
1:00 PM 59 °F - 46 °F 51% 30.02 in 22 mi SW 4.5 mph - -   Scattered Clouds
1:20 PM 59.0 °F - 42.8 °F 55% 30.06 in 6.2 mi WSW 8.1 mph - N/A   Partly Cloudy
1:50 PM 59.0 °F - 42.8 °F 55% 30.04 in 6.2 mi West 6.9 mph - N/A   Partly Cloudy
2:00 PM 59 °F - 46 °F 51% 30.01 in 19 mi West 4.5 mph - -   Scattered Clouds
2:20 PM 60.8 °F - 42.8 °F 52% 30.04 in 6.2 mi WSW 9.2 mph - N/A   Partly Cloudy
3:00 PM 59 °F - 44 °F 47% 30.01 in 19 mi West 6.7 mph - -   Scattered Clouds
3:20 PM 57.2 °F - 41.0 °F 55% 30.04 in 6.2 mi West 9.2 mph - N/A   Partly Cloudy
3:50 PM 59.0 °F - 42.8 °F 55% 30.04 in 6.2 mi SW 6.9 mph - N/A   Partly Cloudy
4:00 PM 58 °F - 45 °F 51% 30.01 in 22 mi WSW 6.7 mph - -   Mostly Cloudy
4:20 PM 57.2 °F - 42.8 °F 59% 30.04 in - WSW 9.2 mph - N/A   Clear
4:50 PM 57.2 °F - 44.6 °F 63% 30.04 in - WSW 5.8 mph - N/A   Clear
5:20 PM 55.4 °F - 42.8 °F 63% 30.06 in - WSW 5.8 mph - N/A   Clear
5:50 PM 55.4 °F - 44.6 °F 67% 30.06 in 6.2 mi SSW 6.9 mph - N/A   Mostly Cloudy
6:00 PM 56 °F - 47 °F 63% 30.04 in 22 mi SW 4.5 mph - - Rain Light Rain
6:20 PM 55.4 °F - 42.8 °F 63% 30.06 in 6.2 mi SW 6.9 mph - N/A   Mostly Cloudy
6:50 PM 53.6 °F - 44.6 °F 72% 30.06 in - SSW 5.8 mph - N/A   Clear
7:00 PM 54 °F - 46 °F 67% 30.04 in 22 mi SSW 2.2 mph - - Rain Light Rain
7:20 PM 51.8 °F - 44.6 °F 76% 30.06 in - SW 3.5 mph - N/A   Clear
7:50 PM 51.8 °F - 44.6 °F 76% 30.06 in - SW 4.6 mph - N/A   Clear
8:00 PM 52 °F - 46 °F 75% 30.06 in 19 mi SW 4.5 mph - -   Partly Cloudy
8:20 PM 51.8 °F - 44.6 °F 76% 30.06 in 6.2 mi SW 4.6 mph - N/A   Overcast
8:50 PM 51.8 °F - 44.6 °F 76% 30.06 in 6.2 mi SW 5.8 mph - N/A Rain Light Rain Showers
9:00 PM 52 °F - 48 °F 80% 30.07 in 16 mi SW 4.5 mph - - Rain Light Rain
9:20 PM 51.8 °F - 44.6 °F 76% 30.06 in 6.2 mi SW 5.8 mph - N/A   Mostly Cloudy
9:50 PM 51.8 °F - 44.6 °F 76% 30.06 in 6.2 mi SW 5.8 mph - N/A   Overcast
10:00 PM 52 °F - 47 °F 79% 30.07 in 8 mi SW 6.7 mph - -   Overcast
10:20 PM 51.8 °F - 44.6 °F 76% 30.09 in 6.2 mi SW 5.8 mph - N/A Rain Light Rain
10:50 PM 50.0 °F - 44.6 °F 82% 30.09 in 6.2 mi SSW 5.8 mph - N/A   Mostly Cloudy
11:20 PM 50.0 °F - 44.6 °F 82% 30.06 in 6.2 mi SSW 5.8 mph - N/A   Mostly Cloudy
11:50 PM 50.0 °F - 44.6 °F 82% 30.06 in 6.2 mi South 4.6 mph - N/A   Overcast